Hulianwang W. Digui 12-05

operational
NORAD ID: 65999 Int'l Des: 2025-231 Owner: ZXW Country: CN Constellation: xingwang
NOTLE

About Hulianwang W. Digui 12-05

Description loading...

Live Position

Loading 3D Globe...

Upcoming Passes

Altitude History

Altitude vs Time

uPlot chart will show altitude changes over time

Two-Line Element Set

1 65999U 25231E 25338.41836585 -.00000017 00000-0 13097-3 0 9994
2 65999 50.0096 159.2946 0004023 339.3674 20.7054 13.73642016 6906
Epoch: Dec 4, 2025 • Age: 42 hours

Current Status

Altitude 992.5 km
Velocity 7.36 km/s
Sub-Earth Point 49.82°N, 93.17°E
Launch Date Oct 16, 2025
Age 0.1 years
Type other

Technical Details

Classification Payload
Mass 800.00 kg
Dry Mass 800.00 kg
Total Mass 800.00 kg
Length 3.00 m
Diameter 1.00 m
Span 10.00 m
Shape Box + 2 Pan
Manufacturer CAST
Bus Type Guowang C
Phase Status In Orbit
Owner/State ZXW/CN

Large Constellations

Loading constellations...